| time (UTC) | temp F | wind direction | speed MPH | gust MPH | rain 1hr in | rain 24hr in | rain mn in | humidity % | barometer mb |
| 20260507021903 | 55 | 103 | 1.0 | 3.0 | 0.00 | 0.00 | 0.00 | 81 | 1009.9 |
| 20260507021404 | 55 | 115 | 1.0 | 3.0 | 0.00 | 0.00 | 0.00 | 81 | 1010.0 |
| 20260507020904 | 55 | 127 | 3.0 | 3.0 | 0.00 | 0.00 | 0.00 | 79 | 1010.0 |
| 20260507020404 | 56 | 78 | 2.0 | 3.0 | 0.00 | 0.00 | 0.00 | 79 | 1010.1 |
| 20260507013904 | 56 | 276 | 2.0 | 3.0 | 0.00 | 0.00 | 0.00 | 80 | 1010.1 |
| 20260507013404 | 56 | 259 | 3.0 | 6.0 | 0.00 | 0.00 | 0.00 | 79 | 1010.2 |
| 20260507011404 | 56 | 264 | 3.0 | 3.0 | 0.00 | 0.00 | 0.00 | 80 | 1010.2 |
| 20260507010904 | 56 | 286 | 3.0 | 6.0 | 0.00 | 0.00 | 0.00 | 78 | 1010.3 |
| 20260507010404 | 56 | 289 | 2.0 | 3.0 | 0.00 | 0.00 | 0.00 | 77 | 1010.3 |
| 20260507004904 | 57 | 320 | 1.0 | 3.0 | 0.00 | 0.00 | 0.00 | 79 | 1010.3 |
| 20260507004404 | 57 | 320 | 2.0 | 3.0 | 0.00 | 0.00 | 0.00 | 80 | 1010.3 |
| 20260507003904 | 57 | 320 | 2.0 | 3.0 | 0.00 | 0.00 | 0.00 | 79 | 1010.3 |
| 20260507001904 | 57 | 317 | 1.0 | 3.0 | 0.00 | 0.00 | 0.00 | 78 | 1010.4 |
| 20260507000904 | 58 | 331 | 1.0 | 2.0 | 0.00 | 0.00 | 0.00 | 78 | 1010.6 |
| 20260507000405 | 58 | 324 | 2.0 | 3.0 | 0.00 | 0.00 | 0.00 | 80 | 1010.6 |
| 20260506233904 | 58 | 341 | 2.0 | 3.0 | 0.00 | 0.00 | 0.00 | 78 | 1010.9 |
| 20260506233404 | 58 | 351 | 3.0 | 3.0 | 0.00 | 0.00 | 0.00 | 77 | 1011.1 |
| 20260506231404 | 58 | 355 | 2.0 | 3.0 | 0.00 | 0.00 | 0.00 | 77 | 1011.0 |
| 20260506230904 | 59 | 347 | 2.0 | 3.0 | 0.00 | 0.00 | 0.00 | 78 | 1011.1 |
| 20260506230404 | 59 | 0 | 0.0 | 3.0 | 0.00 | 0.00 | 0.00 | 81 | 1011.1 |
| 20260506221904 | 59 | 310 | 1.0 | 3.0 | 0.00 | 0.00 | 0.00 | 77 | 1010.9 |
| 20260506221404 | 59 | 63 | 0.0 | 0.0 | 0.00 | 0.00 | 0.00 | 78 | 1011.0 |
| 20260506220903 | 59 | 67 | 0.0 | 1.0 | 0.00 | 0.00 | 0.00 | 78 | 1010.9 |
| 20260506214904 | 60 | 29 | 2.0 | 3.0 | 0.00 | 0.00 | 0.00 | 77 | 1010.9 |
| 20260506213404 | 60 | 30 | 0.0 | 1.0 | 0.00 | 0.00 | 0.00 | 75 | 1011.1 |
| 20260506210903 | 61 | 121 | 1.0 | 3.0 | 0.00 | 0.00 | 0.00 | 74 | 1010.9 |
| 20260506204404 | 61 | 149 | 1.0 | 3.0 | 0.00 | 0.00 | 0.00 | 71 | 1010.6 |
| 20260506203404 | 61 | 122 | 3.0 | 6.0 | 0.00 | 0.00 | 0.00 | 73 | 1010.5 |
| 20260506201904 | 61 | 110 | 5.0 | 7.0 | 0.00 | 0.00 | 0.00 | 75 | 1010.4 |
| 20260506201403 | 61 | 97 | 5.0 | 7.0 | 0.00 | 0.00 | 0.00 | 74 | 1010.3 |
| 20260506194404 | 64 | 180 | 1.0 | 3.0 | 0.00 | 0.00 | 0.00 | 61 | 1009.7 |
| 20260506193904 | 64 | 158 | 1.0 | 3.0 | 0.00 | 0.00 | 0.00 | 58 | 1009.7 |
| 20260506193404 | 64 | 134 | 1.0 | 6.0 | 0.00 | 0.00 | 0.00 | 57 | 1009.6 |
| 20260506190404 | 66 | 118 | 2.0 | 3.0 | 0.00 | 0.00 | 0.00 | 49 | 1009.3 |
| 20260506184904 | 67 | 105 | 2.0 | 3.0 | 0.00 | 0.00 | 0.00 | 46 | 1009.1 |
| 20260506183404 | 66 | 126 | 1.0 | 3.0 | 0.00 | 0.00 | 0.00 | 46 | 1009.0 |
| 20260506181904 | 66 | 116 | 1.0 | 3.0 | 0.00 | 0.00 | 0.00 | 48 | 1008.9 |
| 20260506181404 | 66 | 120 | 2.0 | 5.0 | 0.00 | 0.00 | 0.00 | 48 | 1009.0 |
| 20260506173404 | 67 | 121 | 3.0 | 12.0 | 0.00 | 0.00 | 0.00 | 47 | 1009.1 |
| 20260506171904 | 67 | 44 | 7.0 | 14.0 | 0.00 | 0.00 | 0.00 | 46 | 1009.1 |
| 20260506170403 | 68 | 101 | 5.0 | 12.0 | 0.00 | 0.00 | 0.00 | 45 | 1009.0 |
| 20260506164904 | 68 | 85 | 3.0 | 12.0 | 0.00 | 0.00 | 0.00 | 44 | 1009.0 |
| 20260506163904 | 68 | 104 | 7.0 | 15.0 | 0.00 | 0.00 | 0.00 | 43 | 1009.1 |
| 20260506163403 | 69 | 152 | 6.0 | 14.0 | 0.00 | 0.00 | 0.00 | 42 | 1009.1 |
| 20260506161903 | 70 | 133 | 4.0 | 12.0 | 0.00 | 0.00 | 0.00 | 40 | 1009.1 |
| 20260506161404 | 70 | 84 | 3.0 | 13.0 | 0.00 | 0.00 | 0.00 | 39 | 1009.1 |
| 20260506160403 | 69 | 294 | 5.0 | 14.0 | 0.00 | 0.00 | 0.00 | 41 | 1009.0 |
| 20260506153403 | 69 | 112 | 5.0 | 17.0 | 0.00 | 0.00 | 0.00 | 40 | 1009.3 |
| 20260506151904 | 70 | 148 | 3.0 | 12.0 | 0.00 | 0.00 | 0.00 | 39 | 1009.3 |
| 20260506151404 | 70 | 112 | 3.0 | 12.0 | 0.00 | 0.00 | 0.00 | 38 | 1009.2 |
| 20260506150904 | 70 | 86 | 4.0 | 10.0 | 0.00 | 0.00 | 0.00 | 38 | 1009.3 |
| 20260506143403 | 71 | 123 | 6.0 | 20.0 | 0.00 | 0.00 | 0.00 | 37 | 1009.5 |
| 20260506141903 | 71 | 113 | 12.0 | 20.0 | 0.00 | 0.00 | 0.00 | 36 | 1009.6 |
| 20260506134403 | 72 | 127 | 11.0 | 20.0 | 0.00 | 0.00 | 0.00 | 36 | 1009.9 |
| 20260506133904 | 72 | 125 | 9.0 | 18.0 | 0.00 | 0.00 | 0.00 | 35 | 1009.9 |
| 20260506130404 | 71 | 127 | 10.0 | 20.0 | 0.00 | 0.00 | 0.00 | 37 | 1009.9 |
| 20260506124904 | 71 | 130 | 11.0 | 22.0 | 0.00 | 0.00 | 0.00 | 34 | 1010.0 |
| 20260506124404 | 72 | 127 | 12.0 | 20.0 | 0.00 | 0.00 | 0.00 | 35 | 1010.0 |
| 20260506123404 | 72 | 114 | 12.0 | 21.0 | 0.00 | 0.00 | 0.00 | 34 | 1010.1 |
| 20260506121403 | 72 | 120 | 9.0 | 18.0 | 0.00 | 0.00 | 0.00 | 32 | 1010.1 |
| 20260506114903 | 72 | 96 | 9.0 | 18.0 | 0.00 | 0.00 | 0.00 | 35 | 1010.2 |
| 20260506111404 | 72 | 121 | 7.0 | 14.0 | 0.00 | 0.00 | 0.00 | 33 | 1010.4 |
| 20260506094904 | 71 | 125 | 6.0 | 12.0 | 0.00 | 0.00 | 0.00 | 39 | 1010.8 |
| 20260506093903 | 71 | 111 | 8.0 | 12.0 | 0.00 | 0.00 | 0.00 | 40 | 1010.8 |
| 20260506093403 | 71 | 143 | 9.0 | 13.0 | 0.00 | 0.00 | 0.00 | 38 | 1010.9 |
| 20260506090904 | 70 | 97 | 7.0 | 13.0 | 0.00 | 0.00 | 0.00 | 36 | 1010.6 |
| 20260506084404 | 70 | 115 | 6.0 | 10.0 | 0.00 | 0.00 | 0.00 | 36 | 1010.6 |
| 20260506081904 | 69 | 73 | 2.0 | 6.0 | 0.00 | 0.00 | 0.00 | 36 | 1010.6 |
| 20260506081404 | 68 | 64 | 2.0 | 5.0 | 0.00 | 0.00 | 0.00 | 39 | 1010.5 |
| 20260506071904 | 65 | 21 | 0.0 | 1.0 | 0.00 | 0.00 | 0.00 | 41 | 1010.3 |
| 20260506070903 | 64 | 68 | 0.0 | 3.0 | 0.00 | 0.00 | 0.00 | 42 | 1010.2 |
| 20260506061904 | 63 | 329 | 3.0 | 10.0 | 0.00 | 0.00 | 0.00 | 43 | 1010.3 |
| 20260506061403 | 63 | 334 | 6.0 | 12.0 | 0.00 | 0.00 | 0.00 | 42 | 1010.4 |
| 20260506060403 | 63 | 295 | 9.0 | 12.0 | 0.00 | 0.00 | 0.00 | 43 | 1010.3 |
| 20260506050903 | 62 | 44 | 5.0 | 10.0 | 0.00 | 0.00 | 0.00 | 43 | 1009.8 |
| 20260506050404 | 61 | 45 | 7.0 | 12.0 | 0.00 | 0.00 | 0.00 | 43 | 1009.8 |
| 20260506044404 | 62 | 3 | 3.0 | 8.0 | 0.00 | 0.00 | 0.00 | 42 | 1009.7 |
| 20260506043404 | 62 | 2 | 4.0 | 9.0 | 0.00 | 0.00 | 0.00 | 43 | 1009.9 |
| 20260506041903 | 62 | 343 | 3.0 | 10.0 | 0.00 | 0.00 | 0.00 | 43 | 1010.0 |
| 20260506040404 | 62 | 347 | 4.0 | 10.0 | 0.00 | 0.00 | 0.00 | 42 | 1009.9 |
| 20260506033903 | 62 | 297 | 4.0 | 9.0 | 0.00 | 0.00 | 0.00 | 43 | 1009.9 |
| 20260506031404 | 63 | 358 | 7.0 | 14.0 | 0.00 | 0.00 | 0.00 | 42 | 1010.0 |
| 20260506030903 | 63 | 353 | 5.0 | 15.0 | 0.00 | 0.00 | 0.00 | 42 | 1010.0 |
| 20260506030403 | 62 | 29 | 6.0 | 14.0 | 0.00 | 0.00 | 0.00 | 43 | 1010.0 |